Location: Staunton
(38.1490°N, 79.0720°W)
Time: 21:28:47
(UTC-04:00)

ISS - Pass Details

Date: 07 July 2020
Orbit: 417 x 421 km, 51.6° (Epoch: 08 July)

Event Time Altitude Azimuth Distance (km) Brightness Sun altitude
Exits shadow 02:49:25 18° 334° (NNW) 1,095 -1.2 -25.9°
Maximum altitude 02:49:28 18° 335° (NNW) 1,095 -1.2 -25.9°
Drops below altitude 10° 02:51:53 10° 22° (NNE) 1,495 0.1 -25.7°
Sets 02:54:27 0° 42° (NE) 2,361 1.2 -25.5°
